Voltar ao catálogo

STARLINK-33859

AtivoComunicaçõesVLEO
NORAD 63640·PAYLOAD·🇺🇸 United States

Lançado Apr 25, 2025 de Cape Canaveral Space Force Station

Loading…

Próximas Passagens (próximas 24 horas)

TLE

AtualizadoSource: CelesTrak SupGP

Época: Sep 15, 2026, 03:10 UTC

1 63640C 25083G   26258.13243056  .00018014  00000+0  65231-3 0  2585
2 63640  43.0043  15.7218 0002153 262.5960 155.0370 15.27576196    11

Acompanhe STARLINK-33859 em tempo real com AllMySat

Download on the App Store